GSAT0104 (PRN E20)

Last updated on Oct. 24, 2020, 5:55 a.m. UTC

1 38858U 12055B   20297.39058214  .00000020  00000-0  00000-0 0  9999
2 38858  54.9968 158.2597 0000214 316.4444  43.6407  1.70473807 49997
UTC
Height (km)
Latitude
Longitude
Inclination
Orbital Period
UTC large
Height (km)
Speed (km/s)
/
Latitude / Longitude
Inclination (degrees)
Orbital Period (minutes)
Azimuth
Elevation
Range (km)
Doppler Factor
iOS Compass Heading
iOS Angle

Next 30 passes for location: Hong Kong

Rise time Rise Azimuth (degrees) Set time Set Azimuth (degrees) Duration Max altitude (degrees)

No matching passes for this satellites